Weather History for Bad Axe, MI

Change the Weather History Date:

Wednesday, November 28, 2012

  Actual Average (KP58) Record (KP58)
Temperature  
Mean Temperature 28 °F -  
Max Temperature 35 °F 39 °F 62 °F (2006)
Min Temperature 22 °F 30 °F 16 °F (2013)
Degree Days  
Heating Degree Days 36    
Moisture  
Dew Point 22 °F    
Average Humidity 73    
Maximum Humidity 87    
Minimum Humidity 55    
Precipitation  
Precipitation 0.00 in - - ()
Sea Level Pressure  
Sea Level Pressure 30.20 in    
Wind  
Wind Speed 9 mph (WSW)    
Max Wind Speed 18 mph    
Max Gust Speed 26 mph    
Visibility 10 miles    
Events Snow    
Averages and records for this station are not official NWS values.
T = Trace of Precipitation, MM = Missing Value Source: NWS Daily Summary

Daily Weather History Graph

Daily Weather History Graph

Search for Another Location

Airport:

Trip Planner

Search our weather history database for the weather conditions in past years. The results will help you decide how hot, cold, wet, or windy it might be!

Date:

Astronomy

Nov. 28, 2012 Rise Set
Actual Time 7:43 AM EST 4:56 PM EST
Civil Twilight 7:10 AM EST 5:28 PM EST
Nautical Twilight 6:35 AM EST 6:04 PM EST
Astronomical Twilight 6:00 AM EST 6:39 PM EST
Moon 5:10 PM EST (11/28) 7:39 AM EST (11/28)
Length of Visible Light 10h 17m
Length of Day
9h 13m
Full, 100% of the Moon is Illuminated
Nov 28
Full
Dec 6
Last Quarter
Dec 13
New
Dec 20
First Quarter
Dec 28
Full

Hourly Weather History & Observations

Time (EST) Temp. Windchill Dew Point Humidity Pressure Visibility Wind Dir Wind Speed Gust Speed Precip Events Conditions
12:14 AM 26.2 °F 19.6 °F 19.4 °F 75% 30.18 in 10.0 mi SW 5.8 mph - N/A   Clear
12:54 AM 25.7 °F 18.0 °F 19.4 °F 77% 30.17 in 10.0 mi SSW 6.9 mph - N/A   Clear
1:14 AM 26.2 °F 18.6 °F 20.1 °F 78% 30.16 in 10.0 mi SSW 6.9 mph - N/A   Scattered Clouds
1:35 AM 27.3 °F 17.1 °F 20.7 °F 76% 30.15 in 10.0 mi SSW 11.5 mph - N/A   Scattered Clouds
1:54 AM 27.9 °F 19.1 °F 21.0 °F 75% 30.15 in 10.0 mi SSW 9.2 mph - N/A   Scattered Clouds
2:14 AM 28.4 °F 20.4 °F 21.2 °F 74% 30.15 in 10.0 mi SW 8.1 mph - N/A   Mostly Cloudy
2:35 AM 28.9 °F 20.4 °F 21.2 °F 73% 30.15 in 10.0 mi SW 9.2 mph - N/A   Mostly Cloudy
2:54 AM 29.1 °F 21.3 °F 21.2 °F 72% 30.15 in 10.0 mi SW 8.1 mph 16.1 mph N/A   Mostly Cloudy
3:14 AM 29.1 °F 20.0 °F 21.0 °F 72% 30.14 in 10.0 mi SW 10.4 mph - N/A   Overcast
3:35 AM 29.3 °F 20.8 °F 21.0 °F 71% 30.13 in 10.0 mi SW 9.2 mph - N/A   Overcast
3:54 AM 29.5 °F 21.1 °F 21.2 °F 71% 30.13 in 10.0 mi WSW 9.2 mph 16.1 mph N/A   Overcast
4:15 AM 29.8 °F 20.9 °F 21.6 °F 71% 30.12 in 10.0 mi WSW 10.4 mph 16.1 mph N/A   Overcast
4:34 AM 30.0 °F 21.7 °F 22.1 °F 72% 30.12 in 10.0 mi WSW 9.2 mph - N/A   Overcast
4:54 AM 30.2 °F 20.8 °F 22.6 °F 73% 30.12 in 10.0 mi WSW 11.5 mph 18.4 mph N/A Snow Light Snow
5:15 AM 29.5 °F 19.3 °F 22.5 °F 75% 30.13 in 10.0 mi WSW 12.7 mph 18.4 mph N/A   Mostly Cloudy
5:34 AM 29.7 °F 20.1 °F 22.6 °F 75% 30.13 in 10.0 mi WSW 11.5 mph - N/A   Overcast
5:54 AM 28.8 °F 19.5 °F 22.5 °F 77% 30.14 in 10.0 mi West 10.4 mph 16.1 mph N/A   Mostly Cloudy
6:15 AM 28.4 °F 18.5 °F 22.6 °F 79% 30.14 in 10.0 mi West 11.5 mph 17.3 mph N/A   Mostly Cloudy
6:34 AM 28.2 °F 19.5 °F 22.8 °F 80% 30.15 in 10.0 mi West 9.2 mph - N/A   Mostly Cloudy
6:54 AM 27.5 °F 19.3 °F 22.8 °F 83% 30.15 in 10.0 mi West 8.1 mph - N/A   Scattered Clouds
7:15 AM 27.5 °F 21.1 °F 23.5 °F 85% 30.16 in 10.0 mi West 5.8 mph - N/A   Mostly Cloudy
7:34 AM 28.4 °F 21.2 °F 24.3 °F 84% 30.16 in 10.0 mi West 6.9 mph - N/A   Overcast
7:55 AM 28.4 °F 22.2 °F 24.4 °F 85% 30.17 in 10.0 mi WSW 5.8 mph - N/A   Overcast
8:15 AM 27.7 °F 20.4 °F 23.9 °F 86% 30.17 in 10.0 mi SW 6.9 mph - N/A   Scattered Clouds
8:34 AM 28.0 °F 20.0 °F 24.1 °F 85% 30.17 in 10.0 mi WSW 8.1 mph - N/A   Clear
8:55 AM 28.6 °F 20.7 °F 24.8 °F 86% 30.17 in 10.0 mi WSW 8.1 mph - N/A   Clear
9:15 AM 30.0 °F 23.2 °F 25.5 °F 83% 30.18 in 10.0 mi WSW 6.9 mph - N/A   Clear
9:34 AM 30.9 °F 23.5 °F 25.9 °F 82% 30.19 in 10.0 mi WSW 8.1 mph - N/A   Clear
9:55 AM 31.8 °F 24.6 °F 27.0 °F 82% 30.19 in 10.0 mi West 8.1 mph - N/A   Scattered Clouds
10:15 AM 33.1 °F 25.5 °F 27.3 °F 79% 30.19 in 10.0 mi WSW 9.2 mph - N/A   Scattered Clouds
10:34 AM 33.8 °F 24.8 °F 27.3 °F 77% 30.20 in 10.0 mi West 12.7 mph - N/A   Scattered Clouds
10:55 AM 35.1 °F 26.4 °F 25.7 °F 69% 30.21 in 10.0 mi West 12.7 mph 26.5 mph N/A   Clear
11:15 AM 35.6 °F 25.2 °F 24.4 °F 64% 30.22 in 10.0 mi West 18.4 mph 24.2 mph N/A   Clear
11:34 AM 34.3 °F 24.2 °F 24.1 °F 66% 30.22 in 10.0 mi West 16.1 mph 25.3 mph N/A   Scattered Clouds
11:55 AM 35.1 °F 25.5 °F 25.0 °F 67% 30.21 in 10.0 mi West 15.0 mph 24.2 mph N/A   Overcast
12:15 PM 34.7 °F 25.1 °F 25.0 °F 68% 30.20 in 10.0 mi WNW 15.0 mph 20.7 mph N/A   Mostly Cloudy
12:34 PM 35.1 °F 25.9 °F 24.4 °F 65% 30.20 in 10.0 mi West 13.8 mph 19.6 mph N/A   Mostly Cloudy
12:55 PM 33.3 °F 24.6 °F 22.8 °F 66% 30.21 in 10.0 mi West 11.5 mph - N/A   Scattered Clouds
1:34 PM 35.1 °F 24.8 °F 22.6 °F 61% 30.21 in 10.0 mi West 17.3 mph 20.7 mph N/A   Mostly Cloudy
1:55 PM 34.9 °F 27.1 °F 21.2 °F 57% 30.21 in 10.0 mi West 10.4 mph 19.6 mph N/A   Scattered Clouds
2:15 PM 35.4 °F 27.3 °F 22.5 °F 59% 30.20 in 10.0 mi WNW 11.5 mph - N/A   Mostly Cloudy
2:35 PM 33.8 °F 25.3 °F 20.3 °F 58% 30.20 in 10.0 mi WNW 11.5 mph - N/A   Mostly Cloudy
2:55 PM 34.2 °F 26.8 °F 21.4 °F 60% 30.20 in 10.0 mi West 9.2 mph 17.3 mph N/A   Overcast
3:15 PM 34.2 °F 24.0 °F 19.4 °F 55% 30.20 in 10.0 mi West 16.1 mph 21.9 mph N/A   Mostly Cloudy
3:35 PM 34.3 °F 25.9 °F 20.7 °F 57% 30.21 in 10.0 mi West 11.5 mph - N/A   Mostly Cloudy
3:55 PM 34.5 °F 25.3 °F 21.0 °F 58% 30.22 in 10.0 mi West 13.8 mph 17.3 mph N/A   Mostly Cloudy
4:15 PM 33.8 °F 27.0 °F 21.2 °F 60% 30.22 in 10.0 mi West 8.1 mph - N/A   Scattered Clouds
4:35 PM 32.4 °F 25.3 °F 21.7 °F 65% 30.22 in 10.0 mi West 8.1 mph - N/A   Scattered Clouds
4:55 PM 32.0 °F 25.6 °F 21.2 °F 64% 30.22 in 10.0 mi West 6.9 mph - N/A   Clear
5:14 PM 30.9 °F 26.2 °F 20.7 °F 66% 30.22 in 10.0 mi West 4.6 mph - N/A   Scattered Clouds
5:35 PM 29.3 °F 24.3 °F 20.5 °F 70% 30.22 in 10.0 mi West 4.6 mph - N/A   Scattered Clouds
5:55 PM 28.9 °F 22.8 °F 20.8 °F 72% 30.23 in 10.0 mi West 5.8 mph - N/A   Clear
6:14 PM 27.9 °F 21.5 °F 20.7 °F 74% 30.23 in 10.0 mi West 5.8 mph - N/A   Clear
6:35 PM 28.4 °F 22.2 °F 20.8 °F 73% 30.24 in 10.0 mi West 5.8 mph - N/A   Clear
6:55 PM 28.0 °F 21.7 °F 20.1 °F 72% 30.24 in 10.0 mi West 5.8 mph - N/A   Clear
7:15 PM 28.6 °F 21.5 °F 20.3 °F 71% 30.24 in 10.0 mi West 6.9 mph - N/A   Clear
7:35 PM 28.4 °F 21.2 °F 20.1 °F 71% 30.25 in 10.0 mi West 6.9 mph - N/A   Clear
7:55 PM 28.4 °F 22.2 °F 20.1 °F 71% 30.25 in 10.0 mi West 5.8 mph - N/A   Clear
8:15 PM 28.2 °F 23.1 °F 20.1 °F 72% 30.25 in 10.0 mi West 4.6 mph - N/A   Clear
8:35 PM 26.6 °F 20.0 °F 19.4 °F 74% 30.25 in 10.0 mi West 5.8 mph - N/A   Clear
8:54 PM 25.9 °F 20.3 °F 19.4 °F 76% 30.25 in 10.0 mi West 4.6 mph - N/A   Clear
9:15 PM 25.3 °F 18.5 °F 19.2 °F 78% 30.26 in 10.0 mi West 5.8 mph - N/A   Clear
9:35 PM 24.8 °F 17.9 °F 19.0 °F 79% 30.26 in 10.0 mi West 5.8 mph - N/A   Clear
9:55 PM 24.4 °F 17.5 °F 19.0 °F 80% 30.26 in 10.0 mi West 5.8 mph - N/A   Clear
10:15 PM 23.9 °F 18.0 °F 19.2 °F 82% 30.26 in 10.0 mi WSW 4.6 mph - N/A   Clear
10:35 PM 25.2 °F 20.9 °F 19.6 °F 79% 30.26 in 10.0 mi SW 3.5 mph - N/A   Clear
10:54 PM 23.0 °F 18.4 °F 18.9 °F 84% 30.25 in 10.0 mi SSW 3.5 mph - N/A   Clear
11:14 PM 22.6 °F 15.3 °F 18.9 °F 85% 30.25 in 10.0 mi SSW 5.8 mph - N/A   Clear
11:35 PM 22.1 °F 14.7 °F 18.7 °F 87% 30.24 in 10.0 mi SSW 5.8 mph - N/A   Clear
11:54 PM 23.9 °F 15.8 °F 19.6 °F 84% 30.24 in 10.0 mi SSW 6.9 mph - N/A   Clear